Weather History for Indianapolis, IN

Change the Weather History Date:

Thursday, December 5, 2013

  Actual Average (KEYE) Record (KEYE)
Temperature  
Mean Temperature 41 °F 35 °F  
Max Temperature 59 °F 42 °F 69 °F (2001)
Min Temperature 23 °F 28 °F 12 °F (2005)
Degree Days  
Heating Degree Days 24 30  
Month to date heating degree days 145  
Since 1 July heating degree days 1169  
Cooling Degree Days 0 0  
Month to date cooling degree days 0  
Year to date cooling degree days 1058  
Moisture  
Dew Point 30 °F    
Average Humidity 79    
Maximum Humidity 87    
Minimum Humidity 71    
Precipitation  
Precipitation 0.04 in 0.10 in 0.78 in (1999)
Month to date precipitation 0.44  
Year to date precipitation 38.15  
Sea Level Pressure  
Sea Level Pressure 30.00 in    
Wind  
Wind Speed 11 mph (WNW)    
Max Wind Speed 17 mph    
Max Gust Speed 28 mph    
Visibility 8 miles    
Events Rain , Snow    
T = Trace of Precipitation, MM = Missing Value Source: NWS Daily Summary

Daily Weather History Graph

Daily Weather History Graph

Search for Another Location

Airport:

Trip Planner

Search our weather history database for the weather conditions in past years. The results will help you decide how hot, cold, wet, or windy it might be!

Date:

Astronomy

Dec. 05, 2013 Rise Set
Actual Time 7:51 AM EST 5:19 PM EST
Civil Twilight 7:21 AM EST 5:49 PM EST
Nautical Twilight 6:47 AM EST 6:23 PM EST
Astronomical Twilight 6:15 AM EST 6:56 PM EST
Moon 10:11 AM EST (12/5) 8:39 PM EST (12/5)
Length of Visible Light 10h 28m
Length of Day
9h 27m
Waxing Crescent, 10% of the Moon is Illuminated
Dec 5
Waxing Crescent
Dec 9
First Quarter
Dec 17
Full
Dec 25
Last Quarter
Jan 1
New

Hourly Weather History & Observations

Time (EST) Temp. Windchill Dew Point Humidity Pressure Visibility Wind Dir Wind Speed Gust Speed Precip Events Conditions
12:15 AM 59.0 °F - 52.9 °F 80% 29.71 in 10.0 mi SW 10.4 mph - N/A   Scattered Clouds
12:35 AM 59.0 °F - 52.9 °F 80% 29.72 in 10.0 mi SW 11.5 mph 18.4 mph N/A   Mostly Cloudy
12:55 AM 58.3 °F - 52.7 °F 82% 29.72 in 10.0 mi SW 11.5 mph - N/A   Scattered Clouds
1:15 AM 58.5 °F - 52.9 °F 82% 29.72 in 10.0 mi SW 9.2 mph - N/A   Mostly Cloudy
1:35 AM 55.6 °F - 47.5 °F 74% 29.75 in 10.0 mi West 15.0 mph 27.6 mph N/A   Overcast
1:55 AM 53.6 °F - 46.0 °F 76% 29.76 in 7.0 mi West 15.0 mph 24.2 mph N/A   Overcast
2:15 AM 52.7 °F - 45.9 °F 78% 29.76 in 7.0 mi West 10.4 mph - N/A   Overcast
2:35 AM 51.6 °F - 45.5 °F 80% 29.78 in 7.0 mi West 8.1 mph - N/A   Overcast
2:55 AM 51.3 °F - 45.5 °F 81% 29.78 in 7.0 mi West 15.0 mph 20.7 mph N/A   Overcast
3:15 AM 50.5 °F - 44.1 °F 78% 29.79 in 7.0 mi West 17.3 mph 21.9 mph N/A   Overcast
3:35 AM 49.8 °F - 43.9 °F 80% 29.80 in 7.0 mi West 12.7 mph - N/A   Overcast
3:55 AM 49.1 °F - 43.3 °F 81% 29.81 in 5.0 mi West 13.8 mph 21.9 mph N/A   Haze
4:15 AM 47.5 °F - 41.9 °F 81% 29.81 in 7.0 mi West 12.7 mph - N/A   Overcast
4:35 AM 46.9 °F - 40.6 °F 79% 29.82 in 10.0 mi West 13.8 mph 19.6 mph N/A   Overcast
4:55 AM 46.6 °F - 40.1 °F 78% 29.82 in 10.0 mi West 11.5 mph - N/A   Overcast
5:15 AM 45.5 °F 39.9 °F 39.4 °F 79% 29.83 in 10.0 mi WNW 11.5 mph 17.3 mph N/A   Overcast
5:35 AM 44.6 °F 39.7 °F 39.0 °F 81% 29.81 in 7.0 mi WNW 9.2 mph 16.1 mph N/A   Mostly Cloudy
5:55 AM 43.5 °F 37.9 °F 38.1 °F 81% 29.84 in 10.0 mi WNW 10.4 mph 17.3 mph N/A   Overcast
6:15 AM 42.1 °F 35.7 °F 36.3 °F 80% 29.87 in 10.0 mi WNW 11.5 mph - N/A   Overcast
6:35 AM 41.2 °F 34.1 °F 35.6 °F 81% 29.89 in 10.0 mi WNW 12.7 mph 20.7 mph N/A   Overcast
6:55 AM 40.3 °F 32.6 °F 34.5 °F 80% 29.91 in 10.0 mi WNW 13.8 mph 19.6 mph N/A   Overcast
7:15 AM 38.8 °F 30.4 °F 32.9 °F 79% 29.92 in 10.0 mi West 15.0 mph 21.9 mph N/A   Overcast
7:35 AM 37.9 °F 30.5 °F 32.2 °F 80% 29.93 in 10.0 mi WNW 11.5 mph 19.6 mph N/A   Overcast
7:55 AM 37.4 °F 29.8 °F 32.0 °F 81% 29.94 in 10.0 mi West 11.5 mph - N/A   Overcast
8:15 AM 36.9 °F 30.7 °F 32.0 °F 83% 29.95 in 10.0 mi WNW 8.1 mph - N/A   Overcast
8:35 AM 36.5 °F 28.7 °F 31.5 °F 82% 29.95 in 10.0 mi WNW 11.5 mph 18.4 mph N/A   Overcast
8:55 AM 35.1 °F 26.9 °F 30.6 °F 84% 29.96 in 7.0 mi NW 11.5 mph 19.6 mph N/A   Overcast
9:15 AM 34.7 °F 25.9 °F 30.4 °F 84% 29.97 in 7.0 mi WNW 12.7 mph 18.4 mph N/A   Overcast
9:35 AM 34.3 °F 27.0 °F 29.8 °F 84% 29.99 in 10.0 mi WNW 9.2 mph 18.4 mph N/A   Overcast
9:55 AM 34.3 °F 25.5 °F 30.0 °F 84% 30.02 in 7.0 mi West 12.7 mph 19.6 mph N/A   Overcast
10:15 AM 34.3 °F 25.5 °F 29.7 °F 83% 30.01 in 7.0 mi WNW 12.7 mph 17.3 mph N/A   Drizzle
10:35 AM 34.0 °F 25.5 °F 29.8 °F 85% 30.03 in 5.0 mi West 11.5 mph 18.4 mph N/A Rain Rain
10:55 AM 33.3 °F 24.1 °F 29.3 °F 85% 30.03 in 7.0 mi WNW 12.7 mph - N/A Rain Light Rain
11:15 AM 33.1 °F 24.4 °F 29.1 °F 85% 30.04 in 7.0 mi WNW 11.5 mph 17.3 mph N/A   Overcast
11:35 AM 32.4 °F 23.5 °F 28.8 °F 87% 30.04 in 7.0 mi WNW 11.5 mph - N/A   Light Drizzle
11:55 AM 32.5 °F 23.7 °F 28.4 °F 85% 30.03 in 7.0 mi WNW 11.5 mph - N/A   Light Drizzle
12:15 PM 32.7 °F 23.0 °F 27.5 °F 81% 30.06 in 10.0 mi WNW 13.8 mph 18.4 mph N/A   Overcast
12:35 PM 32.7 °F 25.0 °F 27.0 °F 79% 30.03 in 10.0 mi WNW 9.2 mph 17.3 mph N/A Rain Light Rain
12:55 PM 32.0 °F 23.0 °F 26.1 °F 79% 30.04 in 10.0 mi WNW 11.5 mph 16.1 mph N/A   Light Drizzle
1:15 PM 32.4 °F 23.5 °F 26.2 °F 78% 30.03 in 10.0 mi WNW 11.5 mph - N/A   Overcast
1:35 PM 32.9 °F 25.3 °F 26.4 °F 77% 30.04 in 10.0 mi NW 9.2 mph - N/A   Overcast
1:55 PM 32.9 °F 24.7 °F 26.6 °F 78% 30.03 in 10.0 mi WNW 10.4 mph - N/A   Overcast
2:15 PM 33.1 °F 24.4 °F 25.5 °F 74% 30.04 in 10.0 mi WNW 11.5 mph 16.1 mph N/A   Overcast
2:35 PM 32.9 °F 25.3 °F 24.8 °F 72% 30.03 in 10.0 mi WNW 9.2 mph - N/A   Overcast
2:55 PM 32.0 °F 23.0 °F 24.8 °F 75% 30.05 in 10.0 mi NW 11.5 mph 17.3 mph N/A   Light Drizzle
3:15 PM 31.6 °F 22.1 °F 23.7 °F 73% 30.09 in 10.0 mi West 12.7 mph 18.4 mph N/A   Overcast
3:35 PM 31.1 °F 22.4 °F 23.0 °F 72% 30.06 in 10.0 mi WNW 10.4 mph - N/A   Overcast
3:55 PM 31.1 °F 23.1 °F 23.5 °F 74% 30.06 in 10.0 mi WNW 9.2 mph - N/A   Overcast
4:15 PM 30.6 °F 20.7 °F 23.0 °F 74% 30.11 in 10.0 mi West 12.7 mph - N/A   Overcast
4:35 PM 30.2 °F 20.8 °F 22.3 °F 72% 30.12 in 10.0 mi WNW 11.5 mph - N/A   Overcast
4:55 PM 29.7 °F 20.1 °F 21.6 °F 72% 30.12 in 10.0 mi WNW 11.5 mph - N/A   Overcast
5:15 PM 29.3 °F 21.5 °F 21.0 °F 71% 30.12 in 10.0 mi West 8.1 mph - N/A   Overcast
5:35 PM 29.3 °F 21.5 °F 21.7 °F 73% 30.11 in 7.0 mi WNW 8.1 mph - N/A Snow Light Snow
5:55 PM 28.9 °F 21.9 °F 21.6 °F 74% 30.12 in 10.0 mi WNW 6.9 mph - N/A   Overcast
6:15 PM 28.8 °F 22.6 °F 21.6 °F 74% 30.09 in 10.0 mi WNW 5.8 mph - N/A   Overcast
6:35 PM 28.6 °F 19.3 °F 21.4 °F 74% 30.13 in 10.0 mi WNW 10.4 mph - N/A   Overcast
6:55 PM 28.4 °F 18.5 °F 21.0 °F 74% 30.12 in 10.0 mi NW 11.5 mph - N/A   Overcast
7:15 PM 28.0 °F 18.1 °F 19.9 °F 72% 30.13 in 10.0 mi NW 11.5 mph 18.4 mph N/A   Overcast
7:35 PM 27.9 °F 16.8 °F 19.9 °F 72% 30.15 in 10.0 mi WNW 13.8 mph 19.6 mph N/A   Overcast
7:55 PM 27.5 °F 16.8 °F 19.4 °F 72% 30.14 in 10.0 mi NW 12.7 mph - N/A   Overcast
8:15 PM 27.3 °F 18.4 °F 19.2 °F 72% 30.16 in 10.0 mi NW 9.2 mph - N/A   Overcast
8:35 PM 26.2 °F 19.6 °F 20.5 °F 79% 30.19 in 1.2 mi WNW 5.8 mph - N/A Snow Snow
8:55 PM 25.3 °F 17.6 °F 21.2 °F 84% 30.16 in 1.0 mi WNW 6.9 mph - 0.01 in Snow Snow
9:15 PM 24.6 °F 17.7 °F 20.8 °F 86% 30.16 in 0.8 mi NW 5.8 mph - 0.01 in Snow Snow
9:35 PM 24.6 °F 15.1 °F 21.0 °F 86% 30.18 in 0.8 mi WNW 9.2 mph - 0.02 in Snow Snow
9:55 PM 24.3 °F 15.4 °F 20.8 °F 87% 30.19 in 0.8 mi NW 8.1 mph - 0.02 in Snow Snow
10:15 PM 24.3 °F 15.4 °F 20.8 °F 87% 30.18 in 1.0 mi NNW 8.1 mph - N/A Snow Snow
10:35 PM 23.9 °F 16.8 °F 20.7 °F 87% 30.18 in 1.0 mi NW 5.8 mph - N/A Snow Snow
10:55 PM 23.9 °F 18.0 °F 20.7 °F 87% 30.18 in 4.0 mi NW 4.6 mph - 0.01 in Snow Light Snow
11:15 PM 24.3 °F - 20.5 °F 85% 30.20 in 10.0 mi Calm Calm - N/A   Overcast
11:35 PM 24.3 °F 16.3 °F 20.3 °F 85% 30.18 in 2.5 mi NW 6.9 mph - N/A Snow Light Snow
11:55 PM 24.3 °F 19.9 °F 20.3 °F 85% 30.21 in 1.2 mi WNW 3.5 mph - N/A Snow Snow